This demonstration page uses our WeatherBlox Daily Observations layout. Learn more.

Left ArrowRight Arrow

34.16533, -84.80231

Hourly Observations for March 7, 2017

Temp ( °F °C ) Dew Point ( °F °C ) Humidity (%) Winds ( mph kmh ) Pressure ( in mb ) Visibility ( mi km ) Precip ( " mm )
12:53 am 00:53 Clear 59 15 45 7.2 60 60 SSE 6 9 30.25 1025 10 16 0.00 0.00
1:53 am 01:53 Clear 59 15 46 7.8 62 62 SSE 5 7 30.26 1025 10 16 0.00 0.00
2:53 am 02:53 Clear 57 13.9 47 8.3 69 69 SE 6 9 30.26 1025 10 16 0.00 0.00
3:53 am 03:53 Clear 57 13.9 48 8.9 72 72 SSE 7 11 30.22 1023 10 16 0.00 0.00
4:53 am 04:53 Clear 56 13.3 49 9.4 77 77 SSE 10 17 30.23 1024 10 16 0.00 0.00
5:53 am 05:53 Cloudy 58 14.4 49 9.4 72 72 SSE 9 15 30.23 1024 10 16 0.00 0.00
6:53 am 06:53 Cloudy 58 14.4 49 9.4 72 72 SSE 9 15 30.26 1025 10 16 0.00 0.00
7:53 am 07:53 Cloudy 59 15 49 9.4 69 69 VRB 6 9 30.26 1025 10 16 0.00 0.00
8:53 am 08:53 Mostly Cloudy 61 16.1 50 10 67 67 S 10 17 30.28 1026 10 16 0.00 0.00
9:53 am 09:53 Cloudy 61 16.1 50 10 67 67 SSE 12 19 30.26 1025 10 16 0.00 0.00
10:53 am 10:53 Cloudy 63 17.2 51 10.6 65 65 S 7 11 30.25 1024 10 16 0.00 0.00
11:53 am 11:53 Cloudy 63 17.2 53 11.7 70 70 S 5 7 30.24 1024 10 16 0.00 0.03
12:53 pm 12:53 Cloudy with Light Rain 61 16.1 56 13.3 84 84 S 3 6 30.22 1023 8 13 0.04 1.02
1:53 pm 13:53 Cloudy 61 16.1 56 13.3 84 84 SSE 3 6 30.17 1022 10 16 0.01 0.25
2:53 pm 14:53 Cloudy 61 16.1 57 13.9 87 87 SE 7 11 30.14 1021 10 16 0.02 0.51
3:53 pm 15:53 Cloudy 62 16.7 55 12.8 78 78 S 9 15 30.13 1020 10 16 0.01 0.25
4:53 pm 16:53 Cloudy 63 17.2 54 12.2 73 73 S 14 22 30.12 1020 10 16 0.00 0.00
5:33 pm 17:33 Cloudy with Heavy Rain 60 15.6 57 13.9 90 90 Calm 30.18 1022 1 2 0.19 4.83
5:37 pm 17:37 Cloudy with Heavy Rain 59 15 57 13.9 93 93 VRB 5 7 30.21 1023 1 1 0.21 5.33
5:42 pm 17:42 Cloudy with Rain 59 15 57 13.9 93 93 Calm 30.21 1023 2 3 0.22 5.59
5:50 pm 17:50 Cloudy with Light Rain 59 15 57 14 94 94 Calm 30.21 1023 5 8 0.23 5.84
5:53 pm 17:53 Cloudy with Rain 59 15 57 13.9 93 93 Calm 30.20 1023 4 6 0.24 6.10
6:11 pm 18:11 Cloudy with Thunderstorms 59 15 57 13.9 93 93 SE 3 6 30.21 1023 8 13 0.03 0.76
6:26 pm 18:26 Cloudy with Rain 58 14.4 57 13.9 97 97 ESE 5 7 30.21 1023 8 13 0.06 1.52
6:53 pm 18:53 Cloudy with Light Rain 59 15 57 13.9 93 93 SSE 7 11 30.16 1022 10 16 0.10 2.54
7:53 pm 19:53 Cloudy with Light Rain 59 15 57 13.9 93 93 SSE 12 19 30.17 1022 10 16 0.06 1.52
8:53 pm 20:53 Cloudy 59 15 57 13.9 93 93 S 8 13 30.17 1022 10 16 0.06 1.52
9:53 pm 21:53 Cloudy 59 15 57 13.9 93 93 Calm 30.18 1022 10 16 0.00 0.00
10:53 pm 22:53 Cloudy 58 14.4 57 13.9 97 97 Calm 30.19 1022 10 16 0.00 0.00
11:02 pm 23:02 Cloudy 58 14.4 57 13.9 97 97 Calm 30.21 1023 10 16 0.00 0.00
11:53 pm 23:53 Cloudy 58 14.4 57 13.9 97 97 Calm 30.20 1023 10 16 0.00 0.00

Powered by AerisWeather